FW1901 Weather Reports


Display with metric or nautical units.
time (UTC)temp
F
wind
direction
speed
MPH
gust
MPH
rain 1hr
in
rain 24hr
in
rain mn
in
humidity
%
barometer
mb
20260503211603 61 227 5.0 12.0 0.00 0.00 0.00 47 1010.4
20260503211104 62 233 5.0 16.0 0.00 0.00 0.00 50 1010.3
20260503210603 61 207 6.0 16.0 0.00 0.00 0.00 50 1010.5
20260503210103 60 203 6.0 13.0 0.00 0.00 0.00 50 1010.6
20260503203603 61 266 7.0 16.0 0.00 0.00 0.00 47 1011.1
20260503203104 61 264 3.0 18.0 0.00 0.00 0.00 48 1011.2
20260503201603 61 260 5.0 17.0 0.00 0.00 0.00 49 1011.8
20260503201104 61 244 7.0 17.0 0.00 0.00 0.00 49 1012.1
20260503200603 61 207 7.0 15.0 0.00 0.00 0.00 48 1012.3
20260503200104 61 213 4.0 13.0 0.00 0.00 0.00 47 1012.3
20260503194604 61 152 7.0 18.0 0.00 0.00 0.00 47 1012.7
20260503193603 61 254 2.0 12.0 0.00 0.00 0.00 49 1012.9
20260503193103 60 237 3.0 12.0 0.00 0.00 0.00 48 1013.1
20260503191603 60 255 5.0 13.0 0.00 0.00 0.00 48 1013.7
20260503191104 61 290 3.0 16.0 0.00 0.00 0.00 48 1013.5
20260503190603 61 268 5.0 16.0 0.00 0.00 0.00 50 1013.2
20260503190104 61 238 4.0 13.0 0.00 0.00 0.00 47 1013.3
20260503184603 62 234 3.0 15.0 0.00 0.00 0.00 47 1013.3
20260503183603 61 227 6.0 14.0 0.00 0.00 0.00 49 1013.3
20260503183103 61 235 4.0 14.0 0.00 0.00 0.00 49 1013.3
20260503181603 60 269 4.0 12.0 0.00 0.00 0.00 49 1013.9
20260503181103 61 272 5.0 12.0 0.00 0.00 0.00 46 1014.1
20260503180603 61 245 5.0 14.0 0.00 0.00 0.00 47 1014.2
20260503180103 61 256 5.0 17.0 0.00 0.00 0.00 49 1014.3
20260503174603 60 246 5.0 12.0 0.00 0.00 0.00 49 1014.7
20260503173603 60 238 5.0 14.0 0.00 0.00 0.00 49 1015.0
20260503173103 59 246 5.0 14.0 0.00 0.00 0.00 49 1014.9
20260503171603 58 263 6.0 13.0 0.00 0.00 0.00 49 1015.3
20260503171103 58 282 3.0 14.0 0.00 0.00 0.00 50 1015.3
20260503170103 59 241 9.0 17.0 0.00 0.00 0.00 47 1015.5
20260503160104 59 216 5.0 20.0 0.00 0.00 0.00 49 1016.1
20260503150605 56 257 5.0 12.0 0.00 0.00 0.00 49 1016.6
20260503150104 56 173 4.0 18.0 0.00 0.00 0.00 49 1016.6
20260503140103 52 219 4.0 10.0 0.00 0.00 0.00 55 1017.0
20260503131103 47 219 4.0 12.0 0.00 0.00 0.00 63 1017.0
20260503130603 47 219 3.0 13.0 0.00 0.00 0.00 62 1017.1
20260503120104 41 219 2.0 6.0 0.00 0.00 0.00 72 1016.9
20260503110603 39 3 0.0 0.0 0.00 0.00 0.00 75 1016.4
20260503081602 39 3 0.0 0.0 0.00 0.01 0.00 77 1016.3
20260503081103 39 3 0.0 0.0 0.00 0.01 0.00 77 1016.3
20260503080602 39 3 0.0 0.0 0.00 0.01 0.00 77 1016.3
20260503080103 39 3 0.0 0.0 0.00 0.01 0.00 77 1016.3
20260503054603 37 3 0.0 0.0 0.00 0.01 0.00 85 1016.8
20260503054102 37 3 0.0 0.0 0.00 0.01 0.00 85 1016.8
20260503053603 37 3 0.0 0.0 0.00 0.01 0.00 85 1016.9
20260503053103 37 3 0.0 0.0 0.00 0.01 0.00 85 1016.9
20260503051603 37 3 0.0 0.0 0.00 0.01 0.00 85 1017.0
20260503051103 37 3 0.0 0.0 0.00 0.01 0.00 85 1016.9
20260503050602 37 5 0.0 0.0 0.00 0.01 0.00 85 1017.0
20260503044602 37 312 0.0 0.0 0.00 0.01 0.00 85 1017.0
20260503044102 37 312 0.0 0.0 0.00 0.01 0.00 85 1017.0
20260503043602 37 312 0.0 0.0 0.00 0.01 0.00 85 1017.0
20260503043103 37 312 0.0 0.0 0.00 0.01 0.00 85 1017.0
20260503041602 37 312 0.0 1.0 0.00 0.01 0.00 85 1017.1
20260503041103 37 312 0.0 0.0 0.00 0.01 0.00 85 1017.1
20260503040603 37 312 0.0 0.0 0.00 0.01 0.00 85 1017.0
20260503034603 38 312 0.0 0.0 0.00 0.01 0.01 84 1017.0
20260503034102 38 312 0.0 0.0 0.00 0.01 0.01 84 1017.0
20260503033103 38 312 0.0 0.0 0.00 0.01 0.01 83 1017.0
20260503031602 39 312 0.0 0.0 0.00 0.01 0.01 83 1017.1
20260503031102 39 312 0.0 1.0 0.00 0.01 0.01 82 1017.1
20260503030602 39 312 0.0 1.0 0.00 0.01 0.01 81 1017.1
20260503024603 40 312 0.0 0.0 0.00 0.01 0.01 80 1017.1
20260503024103 40 312 0.0 0.0 0.00 0.01 0.01 80 1017.1
20260503023602 41 312 0.0 0.0 0.00 0.01 0.01 79 1017.1
20260503023102 41 312 0.0 0.0 0.00 0.01 0.01 79 1017.1
20260503021102 42 312 0.0 0.0 0.00 0.01 0.01 77 1016.9
20260503020602 42 312 0.0 0.0 0.00 0.01 0.01 75 1016.9
20260503020104 42 312 0.0 0.0 0.00 0.01 0.01 75 1016.8
20260503014603 43 312 0.0 0.0 0.00 0.01 0.01 72 1016.6
20260503014102 44 312 0.0 0.0 0.00 0.01 0.01 71 1016.6
20260503013601 44 312 0.0 1.0 0.00 0.01 0.01 69 1016.6
20260503013103 44 312 0.0 1.0 0.00 0.01 0.01 69 1016.5
20260503011602 45 312 0.0 1.0 0.00 0.01 0.01 65 1016.5
20260503010602 46 312 0.0 0.0 0.00 0.01 0.01 64 1016.4
20260503004602 48 312 0.0 1.0 0.00 0.01 0.01 58 1016.4
20260503004102 48 312 0.0 1.0 0.00 0.01 0.01 53 1016.4
20260503003603 48 312 0.0 2.0 0.00 0.01 0.01 54 1016.4
20260503003102 49 313 1.0 3.0 0.00 0.01 0.01 56 1016.4
20260503001103 50 219 0.0 2.0 0.00 0.01 0.01 53 1016.3
20260503000602 50 288 1.0 3.0 0.00 0.01 0.01 52 1016.4
20260502234602 51 219 1.0 8.0 0.00 0.01 0.01 49 1016.2
20260502234102 51 219 1.0 6.0 0.00 0.01 0.01 47 1016.1
20260502233602 51 219 1.0 3.0 0.00 0.01 0.01 46 1016.1
20260502233102 52 346 1.0 5.0 0.00 0.01 0.01 48 1016.1
20260502231105 52 219 2.0 6.0 0.00 0.01 0.01 41 1016.1
20260502230605 53 219 3.0 12.0 0.00 0.01 0.01 43 1016.2
20260502224605 56 283 2.0 8.0 0.00 0.01 0.01 39 1016.2
20260502223605 55 321 3.0 8.0 0.00 0.01 0.01 42 1016.3
20260502223105 55 221 3.0 10.0 0.00 0.01 0.01 43 1016.2
20260502221605 55 77 3.0 12.0 0.00 0.01 0.01 42 1016.3
20260502220605 55 282 3.0 12.0 0.00 0.01 0.01 40 1016.3
20260502220105 55 9 1.0 10.0 0.00 0.01 0.01 44 1016.2
20260502214604 55 219 2.0 12.0 0.00 0.01 0.01 41 1016.1
20260502214105 56 219 3.0 12.0 0.00 0.01 0.01 39 1016.2
20260502213604 56 274 3.0 12.0 0.00 0.01 0.01 40 1016.0
20260502213104 56 284 3.0 12.0 0.00 0.01 0.01 37 1016.1